Wind_Speed
34 34 34 33 33 32 32 31 31 31 31 30 30 29 29 29 28 28 28 27 28 28 28 27 26 26 25 25 24 24 24 24 24 23 23 23 23 23 23 22 22 23 23
37 37 37 36 36 35 35 34 34 33 32 32 32 32 32 31 31 30 30 30 29 29 30 29 29 29 28 28 27 26 26 26 25 25 25 25 25 24 24 25 25 25 25
40 40 39 39 39 38 37 37 37 36 35 34 34 34 34 33 33 33 32 32 31 30 31 31 31 31 30 30 30 29 29 28 27 27 27 27 26 26 26 27 27 27 27
42 42 42 41 41 40 40 39 39 39 38 37 36 36 36 35 35 35 34 34 33 33 32 32 33 32 32 32 32 32 31 30 29 29 29 29 28 29 29 29 29 29 29
45 44 44 44 44 43 42 42 41 41 40 39 39 38 38 37 37 37 36 35 35 35 34 34 34 34 34 34 34 33 33 32 31 31 30 30 30 31 31 31 31 31 30
47 47 47 46 45 45 45 44 43 43 42 42 42 41 40 39 39 39 38 37 37 37 36 36 35 36 36 35 35 35 34 33 33 32 32 31 31 31 32 32 32 32 32
47 48 48 48 48 48 47 47 46 45 45 44 44 43 42 42 42 41 40 40 39 38 38 38 37 37 37 37 36 36 35 35 34 34 33 33 33 33 32 33 33 34 33
48 49 49 50 50 50 49 49 48 47 47 46 46 46 45 45 44 43 42 42 41 40 40 40 39 38 38 38 37 36 36 36 36 36 35 35 34 35 35 35 35 34 34
51 51 52 52 52 52 51 51 51 50 49 48 48 47 47 47 46 45 44 43 43 43 42 41 41 40 40 39 38 37 37 37 37 37 37 37 37 37 36 36 37 37 37
54 54 54 53 53 54 53 53 53 52 52 51 50 50 49 48 47 47 46 45 44 44 44 43 42 42 41 40 40 39 39 39 39 38 38 38 38 37 38 38 37 38 38
55 55 56 56 56 55 55 55 55 54 53 53 53 52 51 50 49 48 47 47 46 45 45 44 44 43 43 42 42 41 40 40 39 39 39 39 39 39 39 39 39 39 38
56 56 57 57 57 57 57 56 57 56 54 54 54 53 52 52 51 50 49 48 47 46 45 45 45 45 44 43 42 41 41 41 41 40 40 40 40 40 40 39 40 40 40
57 57 58 58 58 58 58 58 57 57 56 55 55 55 54 53 52 52 51 49 48 47 46 46 46 45 45 44 43 42 42 42 42 41 41 41 41 41 41 41 41 41 41
56 57 58 58 58 59 59 59 59 58 58 57 57 56 55 55 53 53 53 51 49 48 47 46 47 47 46 46 45 44 44 44 43 43 42 42 42 42 42 42 42 42 42
55 56 57 58 58 58 58 58 59 59 59 58 58 58 57 57 56 55 53 52 51 50 49 48 47 47 47 47 47 46 46 45 44 44 44 44 44 44 44 43 43 44 44
53 54 56 57 57 58 58 58 58 58 58 58 59 59 58 57 56 56 55 54 53 52 51 50 49 48 48 48 47 47 46 46 46 45 45 45 45 45 45 45 45 45 45
49 52 53 55 56 57 57 57 57 58 58 58 58 59 58 58 57 56 55 54 53 53 52 51 50 50 49 48 48 48 48 47 47 47 47 47 47 47 47 47 47 47 47
46 48 50 52 53 55 55 56 56 57 57 58 58 58 58 58 58 57 56 55 54 53 52 52 50 49 50 49 49 49 49 49 48 49 49 49 49 48 49 49 49 48 48
44 46 47 49 51 52 53 54 55 55 56 56 57 57 57 58 58 58 57 57 56 54 53 52 51 50 50 49 49 49 50 49 49 50 50 50 50 50 50 50 49 49 49
42 43 44 46 47 49 50 51 52 53 54 55 55 56 56 56 57 57 57 57 56 56 55 54 53 52 51 51 50 50 50 50 50 50 50 50 50 50 49 50 50 50 50
40 41 42 42 44 45 46 47 49 51 52 53 54 54 55 55 56 56 56 56 57 57 57 56 55 54 53 52 52 51 51 51 51 50 50 50 50 50 50 50 50 51 51
39 39 40 41 41 43 44 44 45 48 50 51 51 52 52 53 55 56 56 56 56 56 56 56 56 55 55 53 53 52 52 51 51 51 51 51 51 51 51 51 51 51 51
37 37 38 39 40 41 42 43 43 44 46 48 49 50 50 50 52 54 54 55 55 55 55 55 55 54 54 54 54 53 53 52 52 51 52 51 51 51 50 50 50 50 50
37 36 36 37 37 38 39 40 41 42 43 44 46 48 49 49 48 49 49 50 51 52 53 53 53 53 53 52 52 52 52 52 52 52 52 51 50 50 51 50 50 50 50
35 35 35 35 36 36 37 38 38 39 40 42 44 45 46 47 47 47 47 47 48 49 50 51 51 51 51 51 50 51 51 50 50 50 50 50 50 50 51 51 51 51 50
34 34 34 34 35 35 35 36 36 36 37 39 41 43 44 45 46 47 47 48 48 48 49 49 50 50 50 50 50 50 51 50 49 49 49 49 49 49 49 49 50 51 51
Wind_Direction
248 247 247 247 246 246 246 247 246 245 245 245 245 245 245 245 246 247 247 246 247 247 248 249 251 252 253 254 256 259 262 264 264 264 266 266 267 268 269 269 270 271 272
248 248 248 248 247 247 247 247 247 247 247 246 245 246 246 246 246 247 248 248 249 250 249 250 252 254 254 255 256 259 262 263 264 263 265 266 267 268 269 269 271 273 272
249 248 248 248 247 247 247 247 247 247 247 247 246 246 247 247 248 248 248 249 251 251 251 251 253 254 255 256 258 260 262 263 263 264 265 264 266 268 269 270 271 272 273
248 248 248 247 247 247 247 247 247 247 248 247 247 247 247 247 248 249 249 249 251 251 252 253 253 255 256 257 258 260 261 263 264 264 265 265 266 267 268 270 270 271 273
248 248 248 247 247 247 246 246 246 247 247 247 247 247 248 248 248 249 250 250 251 251 252 254 254 255 256 258 259 260 260 262 263 264 265 266 266 266 267 269 271 271 272
249 248 247 247 247 247 247 247 246 247 247 247 247 247 248 249 249 249 250 251 251 251 252 253 254 255 257 258 260 260 260 261 262 263 265 267 267 267 267 268 269 269 270
249 249 248 248 248 248 248 248 247 247 247 247 248 248 248 249 249 250 250 250 251 251 252 253 254 255 256 257 259 259 259 260 261 263 265 266 267 267 269 270 268 269 270
248 248 248 247 247 247 247 248 249 248 249 249 249 249 249 249 249 250 251 250 250 251 252 253 254 255 256 257 258 259 259 260 261 263 264 266 266 268 270 269 269 270 271
249 248 248 248 249 248 248 248 249 249 248 249 249 249 249 250 250 250 250 251 251 251 252 253 253 254 255 256 257 258 259 260 261 263 265 265 267 269 271 271 270 271 272
249 250 249 248 249 249 249 249 249 249 248 248 249 249 250 250 250 250 250 251 251 252 252 252 253 254 254 256 256 258 259 260 262 263 265 265 266 268 269 270 270 271 272
251 251 250 249 249 249 249 249 250 249 249 249 249 249 250 250 249 250 250 250 251 251 252 252 253 253 254 255 256 257 259 260 261 263 264 265 267 268 269 269 271 272 273
252 252 252 251 250 250 250 250 249 249 248 248 248 248 249 249 249 250 250 250 250 251 251 252 253 254 255 256 256 256 258 260 261 263 264 265 267 268 269 271 272 271 273
252 252 252 251 251 250 250 250 250 249 248 249 248 248 248 248 248 248 249 249 249 250 251 252 252 253 254 254 255 256 258 260 262 262 263 265 267 268 269 271 272 272 274
253 252 251 251 251 250 250 250 250 249 248 248 248 247 247 247 247 248 248 248 249 249 250 252 252 252 253 255 256 257 258 260 262 262 264 266 267 268 269 271 271 272 273
254 252 251 250 250 251 250 250 250 250 249 248 247 247 247 246 246 247 248 248 249 249 249 250 252 253 254 255 256 257 259 260 261 262 264 266 267 268 269 270 271 272 273
254 253 251 250 250 250 250 250 250 249 249 248 247 247 246 245 246 247 247 248 249 249 249 250 251 252 253 255 256 257 258 259 261 262 264 265 267 268 269 270 271 272 273
256 254 252 251 250 250 250 250 249 248 248 248 247 246 246 246 246 247 247 248 248 249 250 250 251 252 253 253 254 256 258 260 261 262 264 265 266 268 269 270 271 272 273
257 255 253 252 250 250 249 249 249 248 247 247 246 246 246 246 246 246 247 247 248 249 251 251 252 252 253 254 255 257 258 260 261 263 264 265 266 268 269 269 270 272 273
258 256 254 252 251 251 250 249 248 248 246 246 246 246 246 246 246 247 247 247 247 249 250 252 252 253 254 255 256 257 259 261 262 264 265 266 267 269 269 269 270 271 273
258 256 254 253 252 251 250 249 248 247 246 245 245 245 245 246 246 246 247 248 248 250 251 251 252 253 255 256 257 259 261 262 264 265 266 266 268 269 269 270 271 272 273
256 256 254 254 253 251 250 250 249 248 247 246 246 245 245 246 246 247 248 249 250 250 251 251 252 253 254 256 257 260 262 263 264 265 266 267 268 269 270 271 272 273 273
257 257 255 253 253 252 251 250 250 249 248 247 246 245 246 246 246 247 249 250 250 251 251 252 252 254 255 257 258 259 261 263 264 265 266 267 268 269 270 270 271 272 273
256 255 254 254 253 253 252 251 250 249 248 247 246 245 245 246 247 248 249 249 250 250 252 253 253 254 256 257 258 259 261 262 263 264 265 266 267 269 270 270 271 271 271
255 254 254 253 252 252 251 251 251 250 248 246 245 244 244 245 247 247 248 248 249 250 251 252 253 253 255 256 258 260 261 262 262 263 265 266 267 268 269 270 270 270 271
254 253 253 253 252 251 251 250 250 250 248 246 244 244 244 245 244 246 248 249 249 250 250 251 251 253 255 256 258 260 261 262 262 263 265 267 267 268 269 270 270 271 271
253 251 251 252 250 250 249 248 248 249 248 247 244 244 245 245 244 245 247 249 250 250 250 250 252 254 255 257 258 260 260 262 263 264 266 267 268 269 269 270 270 271 271
Height
5793 5794 5796 5798 5799 5801 5802 5804 5805 5807 5808 5810 5811 5813 5815 5816 5817 5819 5820 5822 5823 5824 5825 5826 5827 5828 5829 5829 5830 5831 5831 5832 5832 5832 5832 5832 5832 5833 5833 5833 5832 5832 5832
5784 5786 5788 5790 5791 5793 5795 5796 5798 5800 5801 5803 5805 5806 5808 5809 5811 5812 5814 5815 5817 5818 5819 5820 5821 5822 5823 5824 5824 5825 5826 5826 5827 5827 5827 5827 5827 5827 5827 5827 5827 5827 5827
5775 5777 5779 5781 5783 5785 5786 5788 5790 5792 5794 5795 5797 5799 5800 5802 5804 5805 5807 5809 5810 5811 5813 5814 5815 5816 5817 5817 5818 5819 5820 5820 5821 5821 5821 5821 5821 5822 5822 5822 5821 5821 5821
5765 5767 5769 5772 5773 5775 5778 5780 5782 5783 5785 5787 5789 5791 5793 5794 5796 5798 5800 5801 5803 5804 5806 5807 5808 5809 5810 5811 5811 5812 5813 5814 5814 5815 5815 5815 5815 5815 5815 5815 5815 5815 5815
5755 5757 5759 5762 5764 5766 5768 5770 5772 5774 5776 5778 5780 5782 5784 5786 5788 5790 5792 5793 5795 5797 5798 5799 5800 5802 5803 5803 5804 5805 5806 5806 5807 5808 5808 5809 5809 5808 5808 5808 5808 5808 5808
5743 5746 5748 5751 5753 5755 5758 5760 5762 5765 5767 5769 5770 5773 5775 5778 5780 5781 5783 5785 5787 5788 5790 5791 5792 5794 5795 5796 5797 5798 5798 5799 5800 5801 5801 5801 5802 5801 5801 5801 5801 5801 5801
5732 5734 5737 5739 5742 5744 5747 5749 5752 5754 5757 5758 5760 5763 5765 5768 5770 5772 5774 5776 5778 5780 5781 5783 5784 5785 5786 5788 5789 5790 5791 5792 5792 5793 5793 5794 5794 5794 5794 5794 5793 5793 5793
5719 5722 5724 5727 5730 5732 5735 5738 5740 5743 5746 5748 5750 5752 5755 5758 5760 5762 5764 5766 5768 5770 5772 5774 5775 5777 5778 5779 5780 5781 5783 5783 5784 5785 5786 5786 5786 5786 5786 5786 5786 5785 5785
5706 5709 5711 5714 5717 5720 5722 5725 5728 5731 5734 5737 5739 5742 5744 5747 5750 5752 5754 5756 5759 5761 5762 5764 5766 5767 5769 5770 5771 5773 5774 5775 5776 5776 5777 5778 5778 5778 5778 5778 5778 5777 5777
5693 5695 5698 5701 5704 5706 5709 5713 5716 5719 5722 5725 5727 5730 5733 5736 5739 5741 5743 5746 5748 5750 5752 5754 5756 5758 5759 5761 5762 5763 5765 5766 5767 5767 5768 5768 5769 5769 5769 5769 5769 5768 5768
5678 5681 5684 5687 5690 5692 5696 5699 5702 5705 5709 5712 5715 5718 5721 5724 5726 5729 5733 5735 5737 5739 5742 5744 5745 5747 5749 5751 5753 5754 5755 5756 5757 5758 5758 5759 5759 5760 5760 5760 5759 5759 5758
5664 5666 5669 5671 5675 5678 5681 5684 5687 5691 5695 5698 5701 5705 5708 5711 5715 5718 5721 5723 5726 5728 5730 5732 5735 5737 5739 5741 5742 5744 5745 5746 5748 5748 5749 5749 5750 5750 5750 5750 5749 5749 5748
5648 5651 5653 5656 5659 5662 5665 5669 5673 5677 5680 5684 5688 5691 5695 5698 5702 5705 5708 5711 5714 5717 5719 5721 5723 5726 5728 5730 5732 5733 5735 5736 5737 5738 5739 5739 5740 5740 5740 5740 5740 5739 5738
5632 5635 5637 5640 5643 5646 5650 5653 5657 5661 5665 5669 5673 5677 5681 5685 5688 5692 5695 5698 5701 5705 5707 5709 5712 5714 5717 5719 5721 5722 5724 5726 5727 5728 5728 5729 5729 5730 5730 5730 5729 5729 5728
5617 5619 5622 5625 5628 5631 5634 5638 5642 5645 5650 5654 5658 5662 5667 5671 5675 5678 5682 5685 5689 5692 5696 5698 5700 5702 5705 5707 5709 5711 5713 5714 5715 5717 5718 5718 5718 5719 5719 5719 5718 5718 5717
5601 5603 5606 5609 5612 5615 5619 5622 5626 5630 5634 5638 5643 5647 5652 5656 5660 5665 5669 5672 5676 5679 5683 5686 5688 5690 5693 5695 5697 5699 5701 5703 5704 5705 5706 5707 5707 5707 5707 5707 5707 5706 5706
5587 5588 5591 5593 5596 5600 5603 5607 5611 5615 5619 5623 5627 5632 5637 5641 5646 5650 5654 5658 5662 5666 5669 5673 5676 5678 5680 5683 5685 5687 5689 5691 5692 5693 5694 5695 5695 5695 5696 5695 5695 5694 5694
5573 5574 5576 5579 5581 5585 5588 5592 5595 5599 5603 5608 5612 5617 5622 5626 5631 5635 5640 5644 5648 5652 5656 5660 5662 5665 5668 5670 5672 5674 5676 5678 5680 5681 5681 5682 5682 5683 5683 5683 5682 5682 5681
5559 5560 5562 5564 5567 5570 5573 5577 5580 5584 5589 5593 5598 5602 5607 5611 5616 5621 5625 5630 5634 5638 5642 5646 5649 5652 5654 5657 5659 5661 5663 5665 5667 5667 5668 5669 5669 5669 5669 5669 5669 5669 5668
5546 5547 5549 5551 5554 5556 5559 5562 5566 5570 5574 5578 5583 5587 5592 5596 5601 5606 5610 5615 5619 5624 5628 5632 5635 5638 5641 5643 5646 5648 5650 5652 5653 5654 5654 5655 5656 5656 5656 5656 5656 5656 5655
5534 5535 5537 5539 5541 5543 5546 5549 5552 5556 5560 5564 5568 5573 5578 5582 5587 5592 5596 5600 5605 5609 5613 5617 5621 5625 5627 5630 5633 5635 5637 5638 5639 5640 5641 5642 5643 5643 5642 5642 5642 5641 5640
5523 5524 5526 5528 5530 5532 5535 5537 5539 5543 5546 5550 5554 5559 5564 5568 5573 5577 5581 5586 5590 5594 5598 5602 5607 5610 5614 5616 5619 5620 5622 5624 5626 5628 5627 5628 5628 5628 5628 5628 5627 5626 5626
5513 5514 5515 5517 5519 5521 5523 5526 5528 5530 5534 5537 5541 5546 5550 5554 5558 5563 5567 5571 5575 5579 5584 5588 5592 5596 5599 5603 5605 5607 5608 5609 5612 5612 5613 5613 5613 5613 5613 5613 5612 5612 5611
5503 5504 5505 5507 5508 5511 5512 5514 5517 5519 5522 5525 5529 5533 5538 5542 5546 5550 5553 5557 5561 5565 5570 5574 5578 5582 5584 5587 5589 5591 5593 5594 5596 5597 5597 5599 5599 5599 5599 5599 5598 5597 5597
5493 5494 5495 5497 5499 5501 5502 5504 5506 5508 5511 5514 5517 5521 5525 5529 5534 5537 5541 5544 5548 5552 5556 5560 5564 5567 5570 5572 5574 5576 5578 5580 5582 5583 5583 5584 5585 5585 5585 5585 5584 5583 5582
5483 5484 5486 5487 5489 5491 5492 5494 5496 5498 5501 5503 5507 5510 5514 5517 5521 5524 5528 5532 5536 5540 5543 5547 5550 5553 5556 5558 5560 5562 5564 5566 5567 5569 5570 5570 5570 5570 5571 5571 5569 5568 5568